| time (UTC) | temp C | wind direction | speed KPH | gust KPH | rain 1hr cm | rain 24hr cm | rain mn cm | humidity % | barometer mb |
| 20260505000045 | 22 | 250 | 12.9 | 22.5 | 0.00 | 0.00 | 0.00 | 58 | 1010.5 |
| 20260504235526 | 23 | 189 | 12.9 | 22.5 | 0.00 | 0.00 | 0.00 | 56 | 1010.6 |
| 20260504235025 | 23 | 250 | 12.9 | 20.9 | 0.00 | 0.00 | 0.00 | 57 | 1010.7 |
| 20260504234544 | 23 | 207 | 11.3 | 20.9 | 0.00 | 0.00 | 0.00 | 60 | 1010.6 |
| 20260504234026 | 23 | 206 | 9.7 | 19.3 | 0.00 | 0.00 | 0.00 | 58 | 1010.6 |
| 20260504233525 | 23 | 213 | 8.0 | 17.7 | 0.00 | 0.00 | 0.00 | 59 | 1010.5 |
| 20260504233042 | 23 | 204 | 8.0 | 19.3 | 0.00 | 0.00 | 0.00 | 57 | 1010.7 |
| 20260504232525 | 23 | 275 | 9.7 | 19.3 | 0.00 | 0.00 | 0.00 | 58 | 1010.6 |
| 20260504232024 | 23 | 223 | 8.0 | 19.3 | 0.00 | 0.00 | 0.00 | 58 | 1010.6 |
| 20260504231545 | 23 | 246 | 12.9 | 22.5 | 0.00 | 0.00 | 0.00 | 57 | 1010.6 |
| 20260504231022 | 23 | 234 | 12.9 | 24.1 | 0.00 | 0.00 | 0.00 | 56 | 1010.6 |
| 20260504230525 | 23 | 280 | 14.5 | 25.7 | 0.00 | 0.00 | 0.00 | 57 | 1010.7 |
| 20260504230045 | 23 | 196 | 12.9 | 25.7 | 0.00 | 0.00 | 0.00 | 56 | 1010.7 |
| 20260504225522 | 23 | 215 | 9.7 | 20.9 | 0.00 | 0.00 | 0.00 | 57 | 1010.7 |
| 20260504225022 | 23 | 224 | 11.3 | 20.9 | 0.00 | 0.00 | 0.00 | 55 | 1010.8 |
| 20260504224540 | 23 | 248 | 9.7 | 20.9 | 0.00 | 0.00 | 0.00 | 56 | 1010.8 |
| 20260504224023 | 23 | 282 | 8.0 | 19.3 | 0.00 | 0.00 | 0.00 | 58 | 1010.7 |
| 20260504223525 | 23 | 205 | 9.7 | 19.3 | 0.00 | 0.00 | 0.00 | 55 | 1010.8 |
| 20260504223058 | 23 | 247 | 8.0 | 17.7 | 0.00 | 0.00 | 0.00 | 59 | 1010.8 |
| 20260504222526 | 23 | 183 | 11.3 | 22.5 | 0.00 | 0.00 | 0.00 | 56 | 1011.0 |
| 20260504222025 | 23 | 231 | 12.9 | 25.7 | 0.00 | 0.00 | 0.00 | 57 | 1010.8 |
| 20260504221556 | 23 | 217 | 12.9 | 25.7 | 0.00 | 0.00 | 0.00 | 57 | 1010.9 |
| 20260504221025 | 23 | 238 | 9.7 | 20.9 | 0.00 | 0.00 | 0.00 | 57 | 1011.0 |
| 20260504220528 | 23 | 193 | 6.4 | 20.9 | 0.00 | 0.00 | 0.00 | 59 | 1011.1 |
| 20260504220044 | 23 | 227 | 11.3 | 22.5 | 0.00 | 0.00 | 0.00 | 56 | 1011.0 |
| 20260504215522 | 23 | 200 | 11.3 | 22.5 | 0.00 | 0.00 | 0.00 | 57 | 1011.1 |
| 20260504215025 | 23 | 163 | 11.3 | 20.9 | 0.00 | 0.00 | 0.00 | 56 | 1011.1 |
| 20260504214538 | 23 | 222 | 11.3 | 20.9 | 0.00 | 0.00 | 0.00 | 59 | 1011.2 |
| 20260504214022 | 23 | 247 | 9.7 | 20.9 | 0.00 | 0.00 | 0.00 | 56 | 1011.2 |
| 20260504213522 | 23 | 251 | 8.0 | 19.3 | 0.00 | 0.00 | 0.00 | 59 | 1011.3 |
| 20260504213057 | 23 | 233 | 9.7 | 19.3 | 0.00 | 0.00 | 0.00 | 57 | 1011.1 |
| 20260504212523 | 23 | 205 | 6.4 | 19.3 | 0.00 | 0.00 | 0.00 | 60 | 1011.2 |
| 20260504212022 | 23 | 211 | 6.4 | 19.3 | 0.00 | 0.00 | 0.00 | 56 | 1011.4 |
| 20260504211546 | 23 | 252 | 9.7 | 19.3 | 0.00 | 0.00 | 0.00 | 58 | 1011.3 |
| 20260504211022 | 23 | 258 | 11.3 | 17.7 | 0.00 | 0.00 | 0.00 | 56 | 1011.3 |
| 20260504210525 | 23 | 222 | 9.7 | 16.1 | 0.00 | 0.00 | 0.00 | 59 | 1011.3 |
| 20260504210038 | 23 | 244 | 9.7 | 16.1 | 0.00 | 0.00 | 0.00 | 59 | 1011.5 |
| 20260504205522 | 23 | 275 | 9.7 | 19.3 | 0.00 | 0.00 | 0.00 | 59 | 1011.4 |
| 20260504205025 | 23 | 198 | 9.7 | 19.3 | 0.00 | 0.00 | 0.00 | 58 | 1011.6 |
| 20260504204542 | 23 | 252 | 11.3 | 19.3 | 0.00 | 0.00 | 0.00 | 59 | 1011.6 |
| 20260504204025 | 23 | 250 | 6.4 | 19.3 | 0.00 | 0.00 | 0.00 | 60 | 1011.6 |
| 20260504203528 | 22 | 255 | 9.7 | 22.5 | 0.00 | 0.00 | 0.00 | 64 | 1011.5 |
| 20260504203049 | 22 | 203 | 11.3 | 24.1 | 0.00 | 0.00 | 0.00 | 62 | 1011.6 |
| 20260504202525 | 22 | 210 | 11.3 | 24.1 | 0.00 | 0.00 | 0.00 | 63 | 1011.6 |
| 20260504202024 | 22 | 172 | 12.9 | 30.6 | 0.00 | 0.00 | 0.00 | 66 | 1011.7 |
| 20260504201541 | 22 | 244 | 12.9 | 30.6 | 0.00 | 0.00 | 0.00 | 65 | 1011.8 |
| 20260504201025 | 22 | 190 | 16.1 | 24.1 | 0.00 | 0.00 | 0.00 | 66 | 1011.8 |
| 20260504200525 | 22 | 205 | 14.5 | 20.9 | 0.00 | 0.00 | 0.00 | 68 | 1011.7 |
| 20260504200042 | 21 | 192 | 14.5 | 20.9 | 0.00 | 0.00 | 0.00 | 66 | 1011.7 |
| 20260504195522 | 21 | 219 | 9.7 | 22.5 | 0.00 | 0.00 | 0.00 | 69 | 1011.8 |
| 20260504195022 | 21 | 169 | 12.9 | 22.5 | 0.00 | 0.00 | 0.00 | 68 | 1011.8 |
| 20260504194544 | 21 | 199 | 12.9 | 22.5 | 0.00 | 0.00 | 0.00 | 66 | 1011.8 |
| 20260504194023 | 21 | 183 | 12.9 | 20.9 | 0.00 | 0.00 | 0.00 | 67 | 1011.8 |
| 20260504193524 | 21 | 217 | 9.7 | 20.9 | 0.00 | 0.00 | 0.00 | 70 | 1011.7 |
| 20260504193039 | 21 | 173 | 9.7 | 20.9 | 0.00 | 0.00 | 0.00 | 69 | 1011.8 |
| 20260504192522 | 21 | 211 | 12.9 | 20.9 | 0.00 | 0.00 | 0.00 | 68 | 1011.9 |
| 20260504192026 | 21 | 217 | 9.7 | 19.3 | 0.00 | 0.00 | 0.00 | 69 | 1012.0 |
| 20260504191543 | 20 | 179 | 11.3 | 22.5 | 0.00 | 0.00 | 0.00 | 69 | 1012.1 |
| 20260504191025 | 20 | 162 | 14.5 | 22.5 | 0.00 | 0.00 | 0.00 | 70 | 1012.2 |
| 20260504190523 | 20 | 178 | 11.3 | 24.1 | 0.00 | 0.00 | 0.00 | 71 | 1012.2 |
| 20260504190043 | 20 | 134 | 14.5 | 24.1 | 0.00 | 0.00 | 0.00 | 69 | 1012.2 |
| 20260504185522 | 20 | 134 | 16.1 | 24.1 | 0.00 | 0.00 | 0.00 | 71 | 1012.3 |
| 20260504185025 | 20 | 156 | 16.1 | 22.5 | 0.00 | 0.00 | 0.00 | 71 | 1012.3 |
| 20260504184542 | 20 | 155 | 9.7 | 25.7 | 0.00 | 0.00 | 0.00 | 73 | 1012.2 |
| 20260504184025 | 20 | 198 | 11.3 | 25.7 | 0.00 | 0.00 | 0.00 | 72 | 1012.3 |
| 20260504183523 | 19 | 150 | 12.9 | 24.1 | 0.00 | 0.00 | 0.00 | 73 | 1012.4 |
| 20260504183042 | 19 | 146 | 14.5 | 24.1 | 0.00 | 0.00 | 0.00 | 75 | 1012.3 |
| 20260504182523 | 19 | 196 | 9.7 | 24.1 | 0.00 | 0.00 | 0.00 | 73 | 1012.3 |
| 20260504182022 | 18 | 145 | 12.9 | 20.9 | 0.00 | 0.00 | 0.00 | 74 | 1012.4 |
| 20260504181543 | 18 | 148 | 12.9 | 22.5 | 0.00 | 0.00 | 0.00 | 74 | 1012.3 |
| 20260504181024 | 18 | 216 | 12.9 | 22.5 | 0.00 | 0.00 | 0.00 | 74 | 1012.4 |
| 20260504180522 | 18 | 164 | 14.5 | 24.1 | 0.00 | 0.00 | 0.00 | 75 | 1012.4 |
| 20260504180047 | 18 | 187 | 9.7 | 24.1 | 0.00 | 0.00 | 0.00 | 77 | 1012.4 |
| 20260504175523 | 18 | 159 | 14.5 | 22.5 | 0.00 | 0.00 | 0.00 | 76 | 1012.3 |
| 20260504175024 | 17 | 135 | 12.9 | 19.3 | 0.00 | 0.00 | 0.00 | 77 | 1012.4 |
| 20260504174536 | 17 | 215 | 14.5 | 19.3 | 0.00 | 0.00 | 0.00 | 78 | 1012.3 |
| 20260504174025 | 17 | 145 | 12.9 | 19.3 | 0.00 | 0.00 | 0.00 | 77 | 1012.3 |
| 20260504173522 | 17 | 151 | 11.3 | 22.5 | 0.00 | 0.00 | 0.00 | 78 | 1012.3 |
| 20260504173042 | 17 | 211 | 11.3 | 22.5 | 0.00 | 0.00 | 0.00 | 78 | 1012.3 |
| 20260504172522 | 17 | 147 | 12.9 | 22.5 | 0.00 | 0.00 | 0.00 | 78 | 1012.4 |
| 20260504172022 | 17 | 122 | 16.1 | 22.5 | 0.00 | 0.00 | 0.00 | 78 | 1012.3 |
| 20260504171544 | 17 | 158 | 14.5 | 20.9 | 0.00 | 0.00 | 0.00 | 78 | 1012.3 |
| 20260504171025 | 17 | 151 | 11.3 | 17.7 | 0.00 | 0.00 | 0.00 | 79 | 1012.3 |
| 20260504170522 | 17 | 137 | 12.9 | 17.7 | 0.00 | 0.00 | 0.00 | 79 | 1012.3 |
| 20260504151022 | 13 | 174 | 3.2 | 6.4 | 0.00 | 0.00 | 0.00 | 96 | 1011.6 |
| 20260504150522 | 12 | 192 | 3.2 | 6.4 | 0.00 | 0.00 | 0.00 | 96 | 1011.5 |
| 20260504141024 | 8 | 0 | 0.0 | 0.0 | 0.00 | 0.00 | 0.00 | 98 | 1011.2 |
| 20260504140521 | 7 | 0 | 0.0 | 0.0 | 0.00 | 0.00 | 0.00 | 98 | 1011.1 |
| 20260504130522 | 6 | 0 | 0.0 | 0.0 | 0.00 | 0.00 | 0.00 | 97 | 1010.6 |
| 20260504110527 | 7 | 0 | 0.0 | 0.0 | 0.00 | 0.00 | 0.00 | 96 | 1010.1 |
| 20260504100526 | 8 | 0 | 0.0 | 0.0 | 0.00 | 0.00 | 0.00 | 95 | 1009.8 |
| 20260504081542 | 11 | 0 | 0.0 | 1.6 | 0.00 | 0.00 | 0.00 | 94 | 1009.8 |
| 20260504081029 | 11 | 0 | 0.0 | 1.6 | 0.00 | 0.00 | 0.00 | 94 | 1009.7 |
| 20260504080526 | 11 | 0 | 0.0 | 1.6 | 0.00 | 0.00 | 0.00 | 94 | 1009.7 |
| 20260504050529 | 15 | 19 | 0.0 | 1.6 | 0.00 | 0.00 | 0.00 | 82 | 1009.7 |
| 20260504045525 | 15 | 0 | 0.0 | 0.0 | 0.00 | 0.00 | 0.00 | 81 | 1009.8 |
| 20260504045025 | 16 | 0 | 0.0 | 1.6 | 0.00 | 0.00 | 0.00 | 80 | 1009.9 |
| 20260504044539 | 16 | 0 | 0.0 | 1.6 | 0.00 | 0.00 | 0.00 | 79 | 1009.7 |
| 20260504044025 | 16 | 0 | 0.0 | 1.6 | 0.00 | 0.00 | 0.00 | 79 | 1009.8 |
| 20260504043526 | 16 | 0 | 0.0 | 1.6 | 0.00 | 0.00 | 0.00 | 78 | 1009.6 |
| 20260504043039 | 17 | 0 | 0.0 | 1.6 | 0.00 | 0.00 | 0.00 | 78 | 1009.6 |
| 20260504042525 | 17 | 0 | 0.0 | 1.6 | 0.00 | 0.00 | 0.00 | 76 | 1009.6 |
| 20260504042025 | 17 | 22 | 0.0 | 1.6 | 0.00 | 0.00 | 0.00 | 76 | 1009.4 |
| 20260504041542 | 17 | 0 | 0.0 | 1.6 | 0.00 | 0.00 | 0.00 | 74 | 1009.5 |
| 20260504041027 | 18 | 0 | 0.0 | 3.2 | 0.00 | 0.00 | 0.00 | 73 | 1009.4 |
| 20260504040526 | 18 | 21 | 0.0 | 3.2 | 0.00 | 0.00 | 0.00 | 71 | 1009.4 |
| 20260504040100 | 18 | 18 | 0.0 | 1.6 | 0.00 | 0.00 | 0.00 | 71 | 1009.3 |
| 20260504035526 | 18 | 18 | 0.0 | 3.2 | 0.00 | 0.00 | 0.00 | 70 | 1009.1 |
| 20260504035025 | 19 | 18 | 0.0 | 3.2 | 0.00 | 0.00 | 0.00 | 68 | 1009.0 |
| 20260504034541 | 20 | 25 | 0.0 | 1.6 | 0.00 | 0.00 | 0.00 | 65 | 1008.9 |
| 20260504034025 | 20 | 34 | 0.0 | 1.6 | 0.00 | 0.00 | 0.00 | 63 | 1009.0 |
| 20260504033525 | 21 | 34 | 0.0 | 1.6 | 0.00 | 0.00 | 0.00 | 62 | 1008.9 |
| 20260504033040 | 21 | 34 | 0.0 | 3.2 | 0.00 | 0.00 | 0.00 | 61 | 1008.9 |
| 20260504032528 | 22 | 39 | 0.0 | 3.2 | 0.00 | 0.00 | 0.00 | 58 | 1008.8 |
| 20260504032042 | 22 | 33 | 0.0 | 1.6 | 0.00 | 0.00 | 0.00 | 57 | 1008.7 |
| 20260504031540 | 23 | 33 | 0.0 | 1.6 | 0.00 | 0.00 | 0.00 | 55 | 1008.8 |
| 20260504031027 | 23 | 0 | 0.0 | 1.6 | 0.00 | 0.00 | 0.00 | 54 | 1008.8 |
| 20260504030528 | 25 | 33 | 0.0 | 3.2 | 0.00 | 0.00 | 0.00 | 50 | 1008.7 |
| 20260504030038 | 25 | 0 | 0.0 | 6.4 | 0.00 | 0.00 | 0.00 | 49 | 1008.7 |
| 20260504025526 | 26 | 33 | 1.6 | 6.4 | 0.00 | 0.00 | 0.00 | 46 | 1008.7 |
| 20260504025026 | 26 | 337 | 1.6 | 6.4 | 0.00 | 0.00 | 0.00 | 45 | 1008.6 |
| 20260504024542 | 27 | 18 | 1.6 | 9.7 | 0.00 | 0.00 | 0.00 | 43 | 1008.6 |
| 20260504024030 | 27 | 20 | 3.2 | 11.3 | 0.00 | 0.00 | 0.00 | 41 | 1008.6 |
| 20260504023526 | 27 | 24 | 4.8 | 12.9 | 0.00 | 0.00 | 0.00 | 41 | 1008.6 |
| 20260504023045 | 27 | 355 | 6.4 | 16.1 | 0.00 | 0.00 | 0.00 | 40 | 1008.5 |
| 20260504022527 | 27 | 348 | 8.0 | 16.1 | 0.00 | 0.00 | 0.00 | 40 | 1008.6 |
| 20260504022025 | 28 | 40 | 4.8 | 14.5 | 0.00 | 0.00 | 0.00 | 39 | 1008.6 |
| 20260504021541 | 28 | 10 | 3.2 | 12.9 | 0.00 | 0.00 | 0.00 | 40 | 1008.5 |
| 20260504021025 | 28 | 31 | 3.2 | 9.7 | 0.00 | 0.00 | 0.00 | 38 | 1008.6 |
| 20260504020525 | 28 | 19 | 3.2 | 9.7 | 0.00 | 0.00 | 0.00 | 39 | 1008.6 |
| 20260504020040 | 28 | 336 | 3.2 | 17.7 | 0.00 | 0.00 | 0.00 | 39 | 1008.6 |
| 20260504015525 | 28 | 35 | 4.8 | 17.7 | 0.00 | 0.00 | 0.00 | 39 | 1008.5 |
| 20260504015025 | 28 | 28 | 8.0 | 19.3 | 0.00 | 0.00 | 0.00 | 37 | 1008.6 |
| 20260504014542 | 28 | 5 | 4.8 | 19.3 | 0.00 | 0.00 | 0.00 | 39 | 1008.7 |
| 20260504014025 | 28 | 18 | 8.0 | 16.1 | 0.00 | 0.00 | 0.00 | 37 | 1008.6 |
| 20260504013526 | 28 | 24 | 8.0 | 14.5 | 0.00 | 0.00 | 0.00 | 37 | 1008.6 |
| 20260504013042 | 29 | 14 | 6.4 | 17.7 | 0.00 | 0.00 | 0.00 | 36 | 1008.6 |
| 20260504012529 | 29 | 327 | 6.4 | 17.7 | 0.00 | 0.00 | 0.00 | 35 | 1008.6 |
| 20260504012026 | 29 | 51 | 9.7 | 17.7 | 0.00 | 0.00 | 0.00 | 36 | 1008.6 |
| 20260504011542 | 30 | 19 | 6.4 | 14.5 | 0.00 | 0.00 | 0.00 | 36 | 1008.6 |
| 20260504011025 | 30 | 71 | 1.6 | 9.7 | 0.00 | 0.00 | 0.00 | 36 | 1008.8 |
| 20260504010525 | 30 | 122 | 3.2 | 11.3 | 0.00 | 0.00 | 0.00 | 36 | 1008.8 |
| 20260504010049 | 29 | 127 | 4.8 | 16.1 | 0.00 | 0.00 | 0.00 | 38 | 1008.9 |
| 20260504005526 | 29 | 352 | 8.0 | 16.1 | 0.00 | 0.00 | 0.00 | 37 | 1008.9 |
| 20260504005024 | 30 | 10 | 3.2 | 14.5 | 0.00 | 0.00 | 0.00 | 36 | 1009.0 |
| 20260504004545 | 29 | 296 | 3.2 | 14.5 | 0.00 | 0.00 | 0.00 | 34 | 1009.0 |
| 20260504004025 | 29 | 9 | 6.4 | 14.5 | 0.00 | 0.00 | 0.00 | 36 | 1009.1 |
| 20260504003529 | 29 | 337 | 4.8 | 12.9 | 0.00 | 0.00 | 0.00 | 37 | 1009.0 |
| 20260504003040 | 29 | 338 | 3.2 | 16.1 | 0.00 | 0.00 | 0.00 | 40 | 1009.2 |
| 20260504002525 | 29 | 5 | 8.0 | 17.7 | 0.00 | 0.00 | 0.00 | 35 | 1009.3 |
| 20260504002026 | 29 | 35 | 6.4 | 17.7 | 0.00 | 0.00 | 0.00 | 37 | 1009.4 |
| 20260504001555 | 29 | 351 | 8.0 | 16.1 | 0.00 | 0.00 | 0.00 | 34 | 1009.4 |
| 20260504001025 | 30 | 350 | 4.8 | 14.5 | 0.00 | 0.00 | 0.00 | 37 | 1009.5 |
| 20260504000524 | 30 | 89 | 3.2 | 17.7 | 0.00 | 0.00 | 0.00 | 34 | 1009.5 |